sat.trackr.live / text

‹ back to catalog

ONEWEB-0416

NORAD 51625 · 2022-012D

PAYLOAD ACTIVE UNKNOWN

§ Identity

Operator
Country
UK
Launch date
2022-02-10
Launch site
FRGUI
Launch vehicle
Mass (kg)
RCS (m²)

Purposes: comms

External: N2YO · Heavens-Above · Gunter

§ Orbital elements

Epoch: 2026-05-25T02:44:12.687072Z

Period
109.89 min
Inclination
87.8847°
Eccentricity
0.0001650
Mean motion
13.10370764 rev/d
Perigee alt
1,220.5 km
Apogee alt
1,223.0 km
Semi-major
7,599.9 km
B*
-1.9322e-3
RAAN
40.8774°
Arg perigee
93.2382°
Mean anomaly
266.8934°
Rev number
20,630

§ Raw data

ONEWEB-04161 51625U 22012D   26145.11403573 -.00000662  00000+0 -19322-2 0  99922 51625  87.8847  40.8774 0001650  93.2382 266.8934 13.10370764206303

JSON: /api/v1/satellites/51625 · /tle

For live sub-satellite position, see the globe view (requires WebGL).

§ Visibility from observer

Set your observer location to see the next 7 days of passes ≥ 10°. The values pass through the URL so the page stays shareable.

No JS? Fill the form by hand. The geolocation button needs JavaScript.